Temperature
29 29 29 31 32 32 32 32 32 33 34 33 33 33 33 32 32 31 29 28 26 24 23 22 21 20 19 19 18 18 18 18 18 18 18 18 18 18 18 18 18 18 17 18
30 29 31 32 33 32 32 31 32 33 34 33 32 32 33 32 32 31 30 28 26 25 23 22 21 20 19 19 18 18 18 18 18 18 18 18 18 18 18 18 17 17 17 18
29 31 32 32 32 32 32 31 32 32 33 33 32 31 32 31 31 30 30 28 27 25 23 21 20 20 19 19 18 18 18 18 18 18 18 18 17 17 18 17 17 17 17 17
30 32 32 32 31 32 31 32 32 32 31 31 32 30 31 30 30 30 30 29 27 25 23 22 20 20 19 19 18 18 18 18 18 18 18 18 18 18 18 18 18 17 17 17
31 32 31 31 32 32 32 33 32 32 31 31 31 31 30 30 29 29 30 29 27 25 24 22 21 20 19 19 18 18 18 18 18 18 18 18 18 18 18 17 17 17 17 17
31 33 33 32 32 32 32 32 32 31 31 29 30 30 30 30 30 30 30 28 27 25 24 22 21 20 20 19 19 18 18 18 18 18 18 18 18 18 18 17 17 17 18 18
30 31 33 33 32 32 32 30 29 29 28 28 30 30 30 31 32 31 30 28 27 25 24 23 22 20 20 19 19 18 18 18 18 18 18 18 18 18 18 18 17 17 17 17
29 29 31 32 31 31 31 30 28 28 27 27 28 29 31 32 32 31 30 28 27 25 24 23 22 21 20 19 19 18 18 18 18 18 18 18 18 18 17 18 18 18 18 18
30 30 32 33 33 32 31 31 31 30 29 28 29 30 30 31 31 31 30 28 27 26 24 23 22 21 20 19 19 19 18 18 18 18 18 18 18 18 17 18 18 18 18 18
31 30 32 33 32 32 32 32 31 30 28 28 29 29 28 29 30 30 29 28 27 26 25 24 22 21 20 20 19 19 18 18 18 18 18 18 18 18 18 18 18 18 18 18
31 30 31 32 31 31 31 30 30 30 30 29 28 28 29 28 29 30 29 28 27 26 25 24 23 22 21 20 19 19 18 18 18 18 18 18 18 18 18 18 17 17 17 17
31 30 30 31 32 32 32 31 30 29 29 29 29 27 29 29 30 30 29 28 27 26 25 24 23 22 21 20 19 19 18 18 18 18 18 18 18 17 18 17 17 17 17 17
31 29 28 29 30 31 31 31 31 31 30 29 29 28 30 29 29 29 28 27 26 25 25 24 23 22 21 20 20 19 19 18 18 18 18 17 17 17 17 17 17 17 17 17
30 29 29 28 29 30 30 31 31 31 30 29 29 28 29 28 28 28 27 27 26 25 24 24 23 22 21 20 20 19 19 18 18 18 18 17 17 17 17 17 17 17 17 17
30 28 29 29 30 31 31 31 31 31 30 29 29 28 28 28 27 27 26 26 26 25 24 23 22 21 21 20 20 19 19 18 18 18 17 17 17 17 17 17 16 16 16 16
29 28 28 29 30 30 30 31 31 31 30 30 29 27 28 27 26 26 26 25 25 25 24 23 22 21 20 20 19 19 18 18 18 17 17 17 17 17 16 16 16 16 16 16
28 27 27 27 29 29 28 30 31 31 31 30 28 27 27 26 26 26 25 25 25 24 23 22 21 21 20 19 19 18 18 18 17 17 17 17 16 16 16 16 16 16 15 15
27 26 26 27 27 26 29 31 31 31 30 30 29 28 27 26 25 25 24 24 23 22 22 21 21 20 19 19 18 18 18 17 17 17 16 16 16 16 15 15 15 15 15 15
27 26 26 26 26 27 29 30 30 29 29 29 29 28 27 25 25 24 23 23 22 21 21 20 20 20 19 18 18 18 18 17 17 16 16 16 16 15 15 15 15 15 14 14
27 26 26 26 25 25 26 28 29 29 27 28 28 27 26 26 25 23 22 22 21 20 20 19 19 19 18 18 18 17 17 16 16 16 16 15 15 15 15 15 14 14 14 14
25 25 25 25 25 26 26 27 27 26 25 26 26 25 25 24 24 21 21 20 20 19 19 19 18 18 18 17 17 17 16 16 16 15 15 15 15 15 14 14 14 14 13 13
25 25 25 25 25 24 26 26 24 23 24 25 24 23 22 21 21 20 19 19 19 18 18 18 18 17 17 17 17 16 16 15 15 15 15 14 14 14 14 14 13 13 13 12
25 25 25 24 24 23 24 23 23 23 23 23 22 22 21 20 19 19 18 18 18 17 17 17 17 16 16 16 16 16 15 15 15 14 14 14 13 13 13 13 12 12 12 11
23 23 23 23 23 23 22 22 22 22 22 21 21 20 20 19 19 18 17 17 17 17 17 16 16 16 15 15 15 15 15 14 14 14 13 13 13 12 12 12 11 11 11 11
21 21 22 21 21 22 21 20 20 20 21 20 20 20 19 18 18 17 17 16 16 16 16 15 15 15 14 14 14 14 14 14 13 13 12 12 12 12 11 11 11 11 11 10
21 20 20 20 20 20 20 19 19 19 19 19 19 18 18 17 17 16 16 15 15 15 15 14 14 14 13 13 13 13 13 13 13 12 12 11 11 11 10 10 10 9 9 9
Wind_Speed
13 13 15 15 16 16 15 14 12 7 5 6 9 9 6 5 5 7 8 9 10 10 10 11 11 12 12 12 12 11 11 10 8 7 6 5 5 4 4 5 8 8 7 7
14 18 19 17 14 14 14 14 14 10 8 7 10 10 7 5 6 6 8 10 11 12 11 12 11 12 13 13 12 11 10 11 10 7 5 5 5 4 5 4 6 8 8 8
20 14 14 16 16 14 14 14 14 12 10 9 12 13 8 4 5 5 8 10 10 12 13 13 12 11 12 12 13 12 11 10 10 9 6 5 3 3 4 5 5 6 8 7
19 21 13 13 15 14 14 14 14 13 12 11 11 10 6 6 5 6 8 10 11 12 13 13 12 12 12 12 12 11 11 10 10 9 9 9 7 6 5 5 5 6 7 7
16 17 17 16 15 14 14 13 11 12 12 14 14 11 3 6 6 7 8 10 11 12 13 13 13 13 12 12 12 11 10 10 10 9 10 9 7 6 5 5 7 6 5 6
19 16 15 16 15 14 13 12 10 11 12 14 14 11 4 4 6 7 9 11 11 11 12 12 12 12 10 11 11 11 11 10 10 10 9 9 8 7 6 6 7 6 5 5
19 19 16 12 14 15 14 11 9 10 9 10 9 9 3 6 6 8 10 12 12 12 12 12 12 12 10 10 11 11 11 10 10 10 9 9 8 7 7 7 7 6 6 6
18 17 19 15 15 14 16 16 12 9 6 6 7 7 6 8 9 9 10 12 12 13 12 12 11 11 10 10 10 11 11 10 10 9 8 8 8 6 6 7 6 6 5 6
13 16 17 17 16 17 16 16 18 15 13 9 6 4 7 8 10 10 11 12 12 12 12 12 12 11 10 10 10 11 10 9 9 9 8 7 7 6 6 6 6 5 4 5
19 13 13 16 14 17 17 14 10 12 10 11 6 5 5 7 8 10 12 12 12 12 12 12 12 12 10 9 9 10 10 8 8 7 7 8 7 7 6 5 6 5 5 4
20 15 12 14 15 16 16 16 13 10 11 10 6 1 4 6 8 11 12 12 12 12 12 11 11 11 10 10 10 9 9 8 7 7 6 5 6 7 6 5 5 5 4 4
17 13 13 13 14 15 16 17 16 11 10 11 7 2 4 7 8 10 12 12 12 11 12 12 11 11 10 10 10 9 9 8 8 7 6 6 6 6 6 6 5 5 4 4
12 11 13 13 14 16 15 16 16 14 11 11 9 4 7 7 6 7 12 13 12 11 11 12 11 10 9 9 9 9 9 8 8 7 6 6 5 5 5 5 4 4 5 4
7 11 14 14 10 12 15 17 17 16 13 11 8 6 8 8 8 7 9 11 12 11 11 11 10 9 9 8 8 7 7 7 7 7 6 5 5 5 5 4 4 4 4 4
8 13 16 17 15 12 14 16 18 17 15 11 6 6 7 7 9 8 8 10 11 11 10 10 10 9 8 8 7 7 7 6 6 6 6 5 5 5 4 4 4 4 4 4
10 11 14 17 17 14 13 15 15 16 14 12 7 3 2 6 8 10 10 8 8 9 10 10 10 9 8 8 7 7 6 6 6 6 5 6 6 5 4 4 5 5 5 5
11 11 13 14 14 14 15 14 14 12 12 11 7 7 7 8 7 8 10 9 8 8 8 9 9 8 8 7 6 7 7 6 6 6 6 7 7 6 5 6 6 6 6 7
9 8 10 13 13 16 12 11 10 9 9 6 7 9 10 9 7 7 7 9 8 7 8 7 8 8 8 7 8 8 8 7 7 7 6 7 7 7 7 6 7 7 7 7
9 8 10 12 14 14 11 8 8 7 6 5 9 11 11 12 10 8 8 10 9 8 7 6 6 8 7 7 7 8 8 7 7 7 7 7 8 8 8 8 8 7 8 8
12 9 11 12 12 13 8 6 5 5 6 4 9 10 10 9 6 6 8 10 10 9 7 6 6 8 8 7 7 7 7 7 7 7 7 7 8 8 9 9 8 8 8 9
16 14 15 16 14 9 4 3 4 6 3 5 7 8 8 5 6 9 10 10 10 9 8 7 6 7 7 7 8 8 8 8 8 8 9 9 8 9 9 9 8 9 9 10
16 16 16 15 16 8 1 3 2 3 5 7 8 9 11 12 12 11 9 9 8 8 8 8 7 8 7 7 8 9 8 8 9 10 10 9 9 9 9 10 9 9 10 10
9 8 7 6 4 5 7 8 8 6 6 7 8 8 11 11 9 8 8 7 7 7 7 7 8 9 8 7 8 10 9 9 11 11 11 10 10 9 9 9 9 8 7 8
2 2 2 3 6 7 8 8 8 6 5 6 7 7 8 9 8 7 7 6 6 7 7 7 8 9 8 8 9 10 10 11 12 12 11 10 10 10 10 8 7 6 6 7
3 2 2 4 7 7 7 7 6 5 6 7 7 7 7 8 8 8 6 6 6 6 6 7 8 9 10 9 9 9 10 11 12 12 11 11 11 11 11 11 10 9 8 6
1 2 1 2 3 3 6 7 5 5 6 7 7 8 7 7 7 7 6 6 6 6 7 8 9 10 10 10 10 9 9 11 12 12 11 10 10 10 11 12 13 19 16 19
Wind_Direction
215 229 236 237 234 253 278 294 296 285 276 276 278 276 249 242 221 173 161 162 161 162 156 149 151 154 156 157 160 165 169 166 167 170 169 171 171 178 170 165 159 163 173 170
223 229 239 251 254 256 265 274 280 282 273 273 279 278 261 240 248 180 170 166 167 158 152 151 154 157 161 163 164 166 172 171 173 173 170 171 172 180 174 164 153 166 177 180
228 236 227 239 250 254 257 261 270 279 283 271 271 268 248 200 232 200 176 163 161 155 157 157 157 157 162 168 171 175 175 173 178 171 167 165 155 173 168 160 163 180 183 184
235 245 247 240 244 247 254 255 264 274 278 276 273 273 226 191 195 202 177 156 151 152 155 156 161 166 171 173 173 173 174 176 174 172 171 170 176 181 179 169 169 186 188 182
233 232 241 244 245 246 254 267 266 271 272 273 270 271 232 160 180 198 169 148 146 152 152 157 163 167 171 172 170 170 170 173 175 178 177 180 185 185 184 171 169 183 188 193
245 241 231 239 243 244 251 261 263 262 264 260 260 266 236 184 178 175 152 138 141 144 148 153 157 159 166 168 167 169 170 173 176 182 185 187 188 183 182 180 176 185 184 194
239 244 240 231 239 231 231 239 245 239 239 259 264 247 203 149 141 140 135 134 139 144 150 153 156 159 163 167 168 169 168 171 176 182 188 189 189 185 186 186 190 191 186 189
225 230 229 223 228 234 221 228 238 253 256 264 258 236 154 137 124 130 135 136 143 148 150 152 154 156 163 166 166 166 167 169 176 181 184 186 184 191 190 194 195 197 196 188
233 227 216 212 217 234 232 228 244 261 270 267 228 192 134 131 139 142 142 142 147 148 150 153 154 155 163 165 166 167 163 168 177 180 180 185 190 193 188 188 194 196 198 185
258 268 220 200 208 222 242 236 238 251 270 275 247 211 181 159 161 150 147 148 147 148 150 151 151 154 159 161 158 156 157 166 172 174 181 187 188 185 186 193 199 193 194 189
240 256 248 203 205 219 219 236 245 253 255 266 270 300 129 170 167 155 149 145 146 150 150 148 147 150 154 153 153 154 156 161 168 176 180 176 177 181 187 197 198 184 180 172
223 238 247 225 210 221 224 226 230 242 253 268 267 225 155 164 161 154 141 140 142 150 148 143 140 144 149 151 153 157 162 168 171 171 169 169 173 175 182 190 189 179 179 179
214 231 237 234 217 210 220 223 229 233 248 256 260 180 151 137 130 136 134 138 140 144 143 141 143 144 146 145 148 156 165 166 168 166 169 167 172 173 173 171 173 173 176 180
230 228 237 236 226 213 217 224 222 227 236 244 250 186 166 151 141 135 134 137 142 142 140 143 139 137 138 138 142 150 157 157 161 163 164 160 166 162 161 160 163 164 159 159
235 229 240 257 259 247 228 224 223 225 236 245 243 214 192 159 148 145 141 139 141 142 142 139 138 135 137 141 148 152 150 147 147 149 149 143 140 131 135 134 131 122 124 136
225 247 242 247 254 254 250 232 229 222 223 232 225 205 180 147 141 145 145 145 147 145 147 143 142 143 147 147 150 144 138 136 137 140 138 131 128 126 125 126 120 111 106 102
215 226 247 250 245 248 248 241 236 226 221 227 216 173 166 144 144 147 148 152 151 140 136 141 143 140 140 146 149 145 137 135 135 133 127 125 126 122 116 119 111 106 102 95
225 230 237 248 247 244 244 238 242 236 223 200 153 153 155 142 133 126 134 130 121 124 125 127 138 139 143 145 141 135 136 135 135 131 126 124 124 120 117 111 106 102 100 99
224 226 238 243 243 244 246 242 242 233 223 168 144 137 133 128 122 106 108 112 113 115 113 114 125 132 131 132 132 138 138 136 135 131 126 124 126 125 121 115 108 106 102 96
222 220 233 241 243 240 246 269 279 220 205 121 125 128 134 148 148 122 107 110 107 104 103 104 112 115 118 117 122 126 126 121 119 119 117 116 119 121 117 114 111 106 101 96
213 215 226 239 246 240 257 266 277 238 181 98 102 114 122 117 95 114 106 98 99 101 102 99 97 105 111 117 119 116 112 111 110 106 103 103 106 109 109 107 105 106 104 100
213 215 220 232 242 238 68 170 169 77 72 86 88 93 92 93 97 105 106 104 103 104 104 104 98 96 98 108 115 115 112 111 110 108 106 104 102 104 106 105 103 106 110 108
227 227 221 218 211 91 76 87 88 84 83 87 83 88 102 103 105 106 107 109 107 109 105 105 106 100 93 96 106 113 111 111 108 105 103 101 98 95 101 107 112 114 113 113
266 353 148 129 130 109 94 90 89 86 81 90 97 103 111 116 120 117 115 112 107 102 103 108 113 109 100 96 98 106 110 112 113 110 105 102 98 91 82 78 80 89 99 110
306 315 229 150 129 114 90 78 70 74 84 85 92 97 107 115 120 120 116 114 110 107 103 103 107 109 105 102 101 106 113 116 113 109 105 100 95 94 83 74 64 71 61 81
295 285 241 132 103 106 104 86 67 78 79 85 92 102 107 114 120 117 109 104 106 105 105 106 108 110 108 105 102 103 110 116 117 114 110 106 105 103 101 95 80 61 67 67
Height
1477 1479 1476 1468 1463 1462 1460 1461 1460 1455 1448 1453 1457 1456 1455 1457 1458 1463 1469 1474 1479 1484 1488 1490 1493 1495 1497 1500 1503 1507 1511 1515 1518 1522 1526 1529 1533 1536 1539 1541 1543 1546 1548 1550
1474 1474 1466 1460 1457 1458 1461 1465 1462 1454 1448 1452 1456 1457 1451 1455 1456 1461 1466 1471 1476 1482 1486 1489 1492 1494 1497 1499 1503 1506 1509 1513 1517 1521 1524 1528 1531 1535 1538 1540 1542 1544 1547 1549
1470 1460 1456 1459 1460 1462 1462 1464 1462 1459 1452 1450 1456 1460 1454 1453 1457 1461 1464 1469 1474 1479 1484 1488 1491 1494 1496 1499 1501 1504 1508 1512 1516 1520 1523 1527 1530 1533 1536 1539 1540 1543 1545 1548
1461 1456 1454 1457 1459 1460 1465 1456 1456 1457 1461 1463 1459 1471 1458 1455 1458 1460 1462 1467 1472 1477 1482 1486 1490 1493 1496 1498 1501 1504 1507 1510 1514 1518 1521 1524 1527 1530 1534 1537 1539 1541 1544 1546
1456 1452 1454 1458 1456 1455 1457 1450 1452 1456 1461 1465 1459 1465 1461 1454 1461 1460 1460 1465 1471 1476 1480 1485 1488 1491 1495 1497 1500 1502 1505 1509 1512 1516 1519 1522 1526 1529 1532 1535 1537 1539 1542 1544
1449 1445 1447 1450 1449 1451 1452 1454 1456 1458 1462 1476 1463 1466 1466 1455 1455 1456 1458 1464 1470 1475 1479 1484 1487 1491 1494 1497 1499 1501 1504 1507 1511 1514 1518 1521 1524 1527 1530 1533 1535 1537 1540 1542
1453 1447 1442 1445 1450 1450 1453 1466 1479 1481 1483 1480 1459 1462 1459 1447 1446 1450 1456 1463 1469 1475 1479 1483 1487 1490 1492 1495 1497 1500 1502 1505 1509 1512 1516 1519 1522 1525 1528 1530 1533 1535 1537 1539
1457 1456 1443 1441 1448 1451 1453 1459 1478 1486 1488 1480 1467 1463 1451 1441 1445 1451 1456 1462 1468 1473 1478 1482 1486 1489 1491 1494 1496 1499 1501 1504 1508 1511 1514 1517 1520 1523 1526 1529 1531 1533 1536 1538
1444 1447 1432 1434 1439 1444 1450 1453 1449 1460 1466 1474 1466 1455 1448 1443 1446 1451 1456 1462 1467 1473 1478 1481 1485 1488 1490 1493 1495 1497 1500 1503 1507 1510 1513 1515 1518 1521 1523 1526 1529 1531 1534 1536
1436 1442 1429 1430 1436 1440 1442 1444 1452 1461 1476 1480 1467 1464 1460 1453 1451 1451 1456 1461 1466 1472 1477 1481 1484 1487 1490 1492 1494 1497 1499 1503 1506 1508 1511 1514 1516 1519 1521 1524 1526 1529 1531 1534
1433 1443 1436 1431 1439 1443 1446 1448 1449 1451 1455 1469 1478 1471 1449 1453 1449 1451 1455 1460 1466 1471 1476 1480 1484 1487 1490 1492 1495 1497 1500 1502 1504 1507 1509 1512 1514 1517 1519 1522 1524 1526 1529 1531
1430 1436 1442 1434 1428 1430 1435 1441 1447 1462 1462 1456 1464 1471 1446 1446 1448 1450 1454 1460 1465 1470 1475 1479 1484 1487 1490 1493 1495 1498 1500 1502 1504 1506 1508 1511 1513 1515 1517 1519 1521 1524 1526 1528
1428 1437 1451 1449 1439 1432 1434 1435 1438 1443 1451 1456 1464 1465 1445 1446 1450 1452 1455 1461 1466 1470 1475 1479 1483 1487 1490 1493 1495 1498 1500 1502 1504 1506 1508 1510 1512 1514 1515 1517 1519 1521 1523 1525
1427 1435 1444 1450 1442 1433 1436 1434 1434 1441 1451 1455 1454 1456 1449 1449 1452 1454 1457 1462 1466 1471 1475 1479 1483 1487 1490 1493 1495 1497 1500 1502 1504 1506 1507 1509 1510 1512 1514 1516 1518 1520 1521 1523
1428 1436 1436 1432 1428 1427 1429 1431 1431 1436 1439 1448 1449 1451 1448 1449 1452 1457 1460 1463 1467 1472 1476 1479 1483 1486 1489 1492 1495 1497 1499 1501 1503 1505 1506 1508 1509 1511 1513 1515 1516 1518 1520 1522
1430 1435 1435 1436 1428 1426 1429 1427 1428 1430 1433 1439 1443 1450 1446 1450 1453 1457 1460 1464 1468 1472 1475 1479 1483 1486 1489 1492 1494 1496 1498 1500 1502 1503 1505 1507 1509 1510 1512 1514 1516 1517 1519 1521
1430 1438 1443 1442 1432 1432 1439 1427 1426 1426 1427 1433 1443 1447 1447 1451 1454 1457 1460 1465 1468 1472 1475 1479 1482 1485 1489 1491 1494 1496 1498 1500 1501 1503 1505 1506 1508 1510 1511 1513 1515 1516 1518 1520
1433 1437 1440 1442 1442 1455 1434 1418 1420 1423 1427 1427 1435 1440 1446 1451 1455 1459 1462 1465 1469 1473 1476 1479 1482 1485 1488 1491 1493 1495 1497 1499 1501 1502 1504 1506 1507 1509 1511 1512 1514 1516 1517 1519
1428 1435 1441 1442 1447 1443 1429 1421 1422 1427 1431 1429 1433 1439 1446 1452 1456 1461 1464 1466 1470 1473 1475 1479 1483 1485 1487 1490 1492 1494 1497 1498 1500 1502 1504 1505 1507 1508 1510 1512 1513 1515 1517 1518
1427 1431 1441 1442 1450 1453 1437 1425 1424 1428 1438 1434 1435 1440 1446 1450 1456 1464 1465 1467 1470 1473 1476 1479 1482 1485 1487 1489 1491 1494 1496 1498 1500 1501 1503 1505 1507 1508 1510 1511 1513 1515 1516 1518
1432 1435 1440 1442 1444 1439 1431 1427 1429 1444 1445 1439 1440 1443 1447 1452 1456 1463 1465 1467 1471 1474 1476 1479 1482 1484 1486 1488 1490 1493 1495 1497 1499 1501 1503 1504 1506 1508 1510 1511 1513 1515 1516 1518
1428 1433 1437 1438 1444 1445 1432 1432 1438 1444 1441 1441 1445 1448 1451 1455 1459 1463 1466 1469 1472 1475 1477 1479 1482 1483 1485 1487 1490 1492 1494 1497 1499 1500 1502 1504 1506 1508 1510 1511 1513 1515 1517 1518
1424 1426 1426 1433 1440 1438 1436 1439 1442 1443 1445 1447 1449 1452 1455 1458 1462 1466 1469 1471 1473 1476 1478 1480 1482 1484 1486 1487 1490 1491 1494 1496 1498 1500 1502 1503 1505 1508 1510 1512 1514 1516 1518 1520
1428 1426 1427 1433 1436 1438 1440 1442 1445 1447 1449 1451 1452 1456 1457 1460 1464 1468 1471 1473 1474 1476 1478 1480 1482 1484 1486 1488 1490 1491 1493 1495 1497 1499 1501 1504 1506 1508 1510 1513 1515 1517 1519 1521
1434 1432 1432 1436 1439 1441 1443 1445 1448 1450 1451 1452 1454 1457 1461 1463 1466 1468 1471 1473 1475 1477 1478 1480 1482 1484 1486 1488 1490 1491 1493 1495 1497 1499 1501 1504 1506 1508 1511 1513 1516 1518 1520 1522
1435 1437 1438 1440 1441 1442 1446 1447 1451 1452 1453 1455 1456 1459 1462 1465 1467 1469 1471 1473 1475 1477 1479 1481 1482 1484 1486 1488 1490 1492 1494 1496 1498 1500 1502 1505 1507 1510 1512 1514 1517 1520 1523 1524